Wind_Speed
40 39 39 40 39 39 38 37 38 38 38 37 37 37 37 37 37 37 37 37 37 37 37 38 38 38 39 39 39 39 38 38 38 38 37 37 37 38 38 38 38 38 38
42 42 42 42 41 40 40 39 39 39 39 39 38 38 39 39 39 39 39 39 39 40 40 41 41 41 42 42 41 41 41 41 41 41 40 40 40 40 40 40 40 40 40
44 43 43 43 42 41 41 40 40 40 40 40 40 40 40 40 40 41 41 41 42 42 43 44 44 45 45 45 44 44 44 44 44 44 43 43 43 43 43 43 43 42 42
45 45 45 44 44 43 43 42 42 42 42 42 42 42 42 42 42 42 43 44 44 45 45 46 47 47 47 48 47 47 47 47 47 46 46 46 46 46 45 46 45 45 45
46 46 46 46 45 45 45 44 44 44 44 44 44 44 43 44 44 44 45 45 46 46 47 47 47 48 49 49 49 49 49 49 49 49 49 48 48 48 48 48 48 48 47
47 47 47 47 47 46 46 46 45 44 45 45 45 45 45 45 46 46 46 46 47 47 47 47 48 49 49 50 49 49 50 50 51 51 50 50 50 50 51 50 50 50 49
47 48 48 48 48 48 47 47 46 46 46 46 46 46 46 46 46 46 46 47 47 47 48 48 48 49 49 50 50 50 50 51 51 51 52 51 51 52 53 53 52 52 51
47 47 48 48 49 49 49 49 48 48 48 48 47 47 46 46 47 47 48 48 48 48 48 49 49 49 50 50 50 51 51 51 51 51 51 52 52 51 52 53 52 52 52
47 48 48 49 49 49 50 50 49 49 49 48 49 49 48 47 47 48 48 49 49 49 50 50 51 50 51 51 51 52 52 52 52 51 52 52 51 51 51 52 52 51 51
48 48 49 49 50 50 50 50 50 49 49 49 50 50 50 49 49 47 47 49 49 49 50 51 52 52 52 53 53 53 53 53 53 53 53 53 53 52 51 52 52 52 52
49 49 48 49 50 50 50 50 50 50 50 49 50 51 51 50 50 49 48 48 49 50 50 51 52 53 54 54 54 55 54 54 54 54 54 54 53 53 52 52 51 51 52
49 49 49 49 50 49 49 49 49 49 50 50 50 50 50 50 50 50 49 49 50 51 52 52 52 53 54 54 54 54 55 54 54 54 53 53 54 54 53 52 52 52 52
48 49 49 49 49 49 48 48 48 48 49 48 48 48 49 49 49 50 50 50 50 50 51 51 52 53 53 53 54 54 55 55 54 53 53 53 54 53 53 53 54 54 53
46 47 47 47 47 48 47 47 47 47 46 46 46 47 47 47 47 48 48 49 49 49 49 50 52 52 52 52 53 54 54 54 54 53 53 53 53 53 53 53 54 53 52
46 46 47 46 46 46 46 45 44 44 45 45 45 45 45 45 45 46 46 47 48 48 48 48 49 50 51 52 52 52 52 53 52 52 52 52 51 52 52 53 54 53 51
44 45 45 44 44 44 44 44 43 42 42 42 43 43 43 44 44 45 45 46 47 47 47 46 47 47 49 50 50 50 49 49 49 50 50 50 50 50 51 51 51 51 51
43 43 43 43 42 42 42 42 41 40 40 40 40 41 41 42 42 42 44 44 45 46 45 44 44 45 46 46 46 46 46 45 46 47 48 49 48 48 47 48 49 49 49
42 42 41 41 41 40 40 39 40 40 39 39 39 40 40 41 41 40 41 42 43 44 44 42 42 42 42 42 43 43 43 44 45 46 46 47 47 47 47 47 47 47 47
39 40 40 39 39 38 38 38 38 38 39 39 39 39 39 40 40 39 40 40 41 41 42 41 40 40 39 40 40 41 42 42 43 45 45 45 46 46 47 46 45 45 45
38 38 38 37 37 37 37 37 36 37 37 38 38 38 38 38 39 38 39 39 39 39 39 39 38 38 38 39 38 40 41 41 42 42 43 43 43 44 45 44 43 43 42
35 36 36 35 35 35 35 36 36 35 35 36 36 37 38 38 39 38 38 38 38 38 37 37 36 36 36 37 38 38 39 39 39 40 40 41 41 42 42 41 40 38 37
33 33 34 34 34 34 35 35 34 34 35 35 35 36 37 37 37 37 37 37 37 36 35 35 35 34 35 36 37 37 38 37 37 38 38 38 38 38 38 37 35 34 35
32 32 33 33 33 33 33 33 33 34 35 35 35 35 36 36 36 36 37 36 36 35 34 34 34 34 34 35 35 35 35 35 36 36 36 35 35 34 33 31 30 30 31
31 31 31 31 32 32 32 32 33 34 34 35 35 35 36 36 36 36 36 35 34 34 33 33 33 33 33 33 33 32 32 32 32 33 33 33 32 30 28 27 26 27 28
30 30 30 30 31 32 32 33 34 33 34 34 34 35 35 35 36 36 35 34 33 32 32 31 31 30 30 31 31 31 30 29 29 29 29 28 27 26 25 24 24 24 25
28 28 29 30 30 30 31 32 33 33 33 33 34 34 34 35 34 33 33 33 32 32 30 29 29 29 28 28 28 28 28 28 28 27 26 25 24 23 22 23 23 24 24
Wind_Direction
260 261 262 261 262 262 262 262 261 261 262 262 262 262 261 261 263 265 266 266 267 268 268 269 269 269 268 269 269 270 271 272 272 273 273 273 273 272 272 272 273 273 274
260 261 261 261 261 262 262 262 261 262 262 263 263 262 262 262 263 264 265 266 267 268 268 269 270 269 269 269 268 269 270 271 271 272 273 273 274 273 272 272 272 273 274
260 260 260 259 260 260 261 261 261 262 263 263 264 264 263 264 264 264 265 266 267 268 269 269 269 269 269 269 268 269 270 270 270 271 272 272 273 273 273 272 272 273 274
259 259 259 259 259 260 260 261 262 263 264 264 264 264 264 265 266 266 267 268 268 269 269 269 270 269 269 269 268 268 269 270 270 271 272 272 273 273 273 273 273 273 273
259 258 258 258 259 260 261 262 262 263 264 264 264 264 265 266 267 268 269 269 269 269 269 269 270 270 270 269 269 269 269 270 270 271 271 272 273 273 273 273 273 273 273
258 257 258 258 259 260 261 262 263 263 264 264 264 264 264 266 267 268 269 269 269 269 270 270 270 269 269 269 269 269 269 270 271 271 271 272 273 273 272 272 273 273 273
259 258 258 259 259 260 261 262 263 264 264 264 264 264 265 266 267 268 268 269 269 270 270 270 270 270 270 269 269 270 270 270 271 271 271 271 272 273 273 272 272 272 272
260 260 259 259 260 260 262 263 263 264 264 264 264 264 264 265 267 268 268 268 269 270 270 270 270 270 271 271 271 270 271 271 271 272 272 272 272 272 273 272 272 273 272
262 261 261 260 260 261 262 263 264 264 264 264 264 264 265 265 266 267 268 268 269 270 270 271 271 271 271 271 272 272 271 272 272 272 272 273 272 272 273 272 272 272 272
262 262 262 262 261 262 263 264 265 264 263 264 265 265 266 267 266 266 267 268 269 270 271 271 271 271 271 271 271 272 271 271 271 272 273 272 273 272 273 273 272 272 272
262 262 263 264 263 263 264 264 264 264 264 264 265 266 267 267 267 266 266 268 269 270 271 272 272 271 271 271 271 272 271 271 271 271 271 271 272 272 272 272 273 272 272
262 262 263 264 264 264 265 264 264 264 264 264 265 265 265 266 267 267 267 268 269 270 271 273 273 272 271 271 271 271 270 270 271 270 271 271 272 272 271 271 272 272 272
262 263 263 263 264 264 265 265 265 265 264 265 265 266 266 266 267 268 269 269 269 270 271 272 272 272 272 272 271 271 270 270 270 270 270 271 272 272 271 271 271 272 272
263 263 263 264 264 264 265 266 266 266 265 265 265 267 267 267 268 269 270 270 269 270 270 271 271 272 272 273 273 272 271 270 269 269 269 270 271 271 272 272 272 272 271
263 263 263 263 263 263 264 265 266 266 265 265 265 266 266 267 268 270 271 271 272 271 270 271 272 272 273 273 273 273 271 269 267 267 269 271 272 272 272 273 273 271 271
263 263 262 262 262 263 263 264 264 264 265 265 264 265 267 269 269 270 272 273 274 273 272 272 273 273 273 272 272 272 271 268 268 268 269 271 272 273 273 273 272 271 270
264 262 261 261 262 263 263 263 262 263 264 265 266 267 269 271 271 272 273 274 274 275 274 274 275 275 274 272 271 271 270 269 269 269 269 271 272 272 272 272 273 272 271
262 261 260 259 260 261 262 263 263 263 264 265 267 268 270 272 274 275 275 276 276 277 276 276 275 275 274 273 272 271 271 271 270 270 270 271 271 272 273 272 272 271 270
262 261 260 259 260 261 262 262 263 264 265 265 267 268 270 272 274 275 277 278 278 278 277 276 275 274 273 274 272 271 271 272 271 271 270 270 271 272 273 272 271 271 270
261 261 260 260 261 262 262 262 263 264 265 265 266 268 270 272 273 275 277 279 279 279 278 277 276 274 273 274 273 271 272 272 273 272 271 271 272 272 273 272 270 270 269
262 261 260 260 260 262 262 262 264 263 264 266 267 268 270 271 273 275 277 278 280 279 278 277 276 275 275 275 275 273 273 273 273 273 271 271 272 273 273 272 271 268 266
262 262 260 260 261 262 262 263 263 263 264 266 268 269 270 271 274 277 277 278 279 278 276 275 276 276 276 276 276 275 275 273 273 273 271 271 271 272 272 271 269 266 262
262 262 261 261 262 262 261 262 263 263 265 267 269 270 271 272 274 276 278 277 278 276 274 273 274 276 277 277 277 277 275 274 275 274 272 272 271 271 270 268 265 263 260
262 262 262 261 262 262 262 263 263 262 264 267 269 271 271 272 274 275 277 277 276 274 274 273 274 275 276 278 278 277 276 275 274 274 273 272 271 269 266 265 263 261 259
262 262 262 262 263 263 263 264 263 264 266 267 270 271 272 273 275 275 276 275 273 272 273 273 274 275 277 278 278 276 275 276 275 274 272 270 268 266 264 263 262 261 259
263 263 262 262 262 265 265 265 264 265 267 268 270 271 271 273 274 275 274 272 270 271 272 273 274 275 276 279 278 277 277 278 277 272 271 269 266 264 263 264 263 261 260
Height
5776 5776 5777 5776 5776 5777 5777 5778 5778 5778 5779 5779 5780 5781 5782 5783 5784 5785 5786 5786 5787 5787 5787 5787 5787 5787 5787 5787 5787 5786 5786 5785 5785 5784 5784 5783 5783 5782 5781 5780 5780 5779 5778
5766 5767 5767 5767 5767 5768 5768 5769 5769 5769 5770 5770 5771 5771 5772 5773 5774 5775 5776 5777 5777 5777 5778 5777 5777 5777 5777 5777 5777 5777 5777 5776 5776 5775 5774 5774 5773 5772 5772 5771 5771 5770 5769
5756 5756 5757 5757 5758 5758 5759 5760 5760 5760 5761 5761 5761 5762 5763 5763 5764 5765 5765 5766 5767 5767 5767 5767 5767 5767 5767 5766 5766 5766 5766 5766 5765 5765 5764 5764 5763 5762 5762 5761 5761 5760 5759
5745 5746 5747 5747 5748 5749 5749 5750 5750 5751 5751 5751 5752 5752 5752 5753 5753 5754 5754 5755 5755 5756 5756 5756 5755 5755 5755 5755 5755 5755 5755 5755 5754 5754 5754 5753 5752 5751 5751 5750 5750 5749 5748
5734 5735 5736 5737 5737 5738 5739 5739 5740 5740 5741 5741 5741 5741 5742 5742 5742 5743 5743 5743 5743 5744 5744 5744 5743 5743 5743 5743 5743 5743 5743 5743 5743 5742 5742 5741 5740 5740 5739 5738 5738 5737 5737
5723 5724 5725 5726 5726 5727 5728 5728 5729 5729 5730 5730 5730 5730 5731 5731 5731 5732 5732 5731 5731 5731 5731 5731 5731 5731 5731 5731 5731 5731 5731 5731 5730 5730 5729 5729 5728 5727 5727 5726 5725 5725 5724
5711 5712 5713 5714 5715 5716 5717 5717 5718 5718 5718 5718 5719 5719 5719 5720 5720 5720 5720 5719 5719 5719 5719 5719 5719 5719 5719 5719 5719 5718 5718 5718 5718 5717 5716 5716 5715 5714 5713 5713 5712 5711 5711
5699 5701 5702 5703 5703 5704 5705 5705 5706 5706 5706 5706 5707 5707 5708 5709 5709 5709 5708 5707 5707 5707 5707 5707 5707 5706 5706 5706 5706 5706 5705 5705 5705 5704 5703 5702 5701 5701 5700 5698 5697 5697 5697
5688 5689 5690 5691 5691 5692 5693 5693 5694 5694 5694 5694 5694 5695 5695 5697 5697 5698 5697 5696 5695 5695 5694 5694 5694 5693 5693 5693 5693 5692 5692 5692 5691 5690 5689 5688 5688 5687 5686 5684 5684 5683 5682
5676 5677 5678 5678 5679 5680 5681 5681 5681 5681 5681 5682 5682 5682 5683 5683 5684 5686 5686 5684 5683 5682 5682 5681 5681 5680 5680 5679 5679 5679 5679 5678 5677 5677 5676 5675 5674 5673 5672 5671 5670 5669 5669
5664 5665 5665 5666 5667 5667 5668 5668 5668 5668 5669 5669 5669 5669 5670 5670 5670 5672 5673 5672 5671 5669 5669 5668 5667 5667 5666 5665 5665 5665 5664 5664 5663 5663 5662 5661 5660 5659 5658 5657 5656 5655 5655
5652 5652 5653 5654 5654 5655 5655 5655 5655 5656 5656 5656 5656 5656 5657 5657 5657 5657 5658 5659 5659 5658 5656 5654 5653 5652 5652 5651 5650 5650 5649 5649 5649 5648 5648 5647 5646 5645 5644 5643 5642 5641 5641
5639 5640 5640 5641 5641 5642 5642 5642 5642 5643 5643 5643 5644 5644 5644 5644 5644 5644 5644 5644 5645 5644 5643 5641 5639 5638 5637 5636 5636 5635 5634 5634 5633 5633 5633 5632 5632 5630 5629 5628 5628 5627 5626
5626 5626 5627 5628 5629 5629 5630 5630 5630 5630 5631 5631 5631 5631 5632 5632 5631 5631 5630 5630 5631 5631 5630 5628 5625 5624 5622 5621 5621 5620 5619 5618 5618 5618 5618 5618 5617 5616 5615 5614 5613 5612 5611
5613 5614 5614 5615 5616 5617 5618 5618 5618 5619 5619 5619 5620 5620 5620 5620 5619 5618 5618 5617 5617 5617 5618 5615 5613 5610 5608 5607 5606 5605 5604 5603 5603 5603 5604 5603 5603 5601 5600 5599 5598 5597 5596
5600 5601 5602 5603 5604 5605 5606 5606 5607 5607 5608 5608 5608 5608 5609 5608 5608 5607 5606 5605 5603 5603 5603 5603 5600 5597 5595 5593 5591 5590 5589 5589 5589 5589 5589 5589 5588 5587 5586 5584 5583 5582 5581
5589 5590 5591 5592 5593 5594 5594 5595 5596 5596 5597 5597 5598 5598 5598 5597 5596 5595 5594 5593 5591 5590 5590 5589 5586 5584 5581 5580 5578 5577 5576 5576 5576 5576 5576 5575 5574 5573 5572 5571 5570 5569 5568
5578 5579 5580 5581 5582 5583 5584 5584 5585 5586 5587 5587 5587 5587 5587 5586 5586 5584 5583 5582 5580 5578 5577 5576 5574 5572 5570 5568 5567 5566 5565 5564 5563 5563 5562 5562 5561 5560 5559 5558 5557 5556 5555
5568 5568 5569 5570 5572 5573 5574 5574 5575 5576 5576 5577 5577 5576 5576 5576 5575 5574 5572 5571 5569 5567 5565 5563 5562 5560 5559 5557 5556 5555 5554 5553 5551 5550 5550 5549 5548 5547 5546 5545 5544 5543 5543
5558 5558 5559 5560 5561 5563 5564 5564 5565 5566 5566 5566 5566 5566 5566 5566 5565 5563 5562 5560 5558 5556 5554 5552 5551 5550 5548 5547 5545 5544 5543 5542 5540 5539 5538 5537 5536 5535 5534 5532 5532 5531 5531
5548 5548 5549 5551 5552 5553 5554 5554 5555 5556 5556 5556 5556 5556 5556 5555 5554 5553 5552 5550 5548 5546 5544 5542 5541 5540 5538 5536 5535 5533 5532 5531 5529 5527 5527 5526 5525 5524 5522 5520 5519 5519 5520
5538 5539 5540 5541 5542 5543 5544 5544 5545 5546 5546 5547 5546 5546 5546 5545 5544 5542 5541 5539 5537 5536 5534 5533 5532 5530 5528 5526 5524 5522 5521 5520 5519 5518 5516 5515 5513 5512 5511 5510 5509 5509 5509
5529 5530 5531 5531 5532 5533 5534 5534 5535 5536 5537 5537 5537 5536 5535 5535 5534 5532 5530 5529 5527 5525 5524 5523 5522 5520 5518 5517 5514 5513 5511 5509 5508 5506 5505 5505 5503 5502 5501 5500 5500 5500 5501
5520 5521 5521 5522 5523 5524 5524 5525 5525 5526 5527 5527 5527 5526 5525 5525 5524 5522 5521 5519 5517 5516 5515 5514 5513 5511 5509 5506 5505 5503 5501 5500 5499 5497 5495 5495 5494 5494 5493 5493 5492 5493 5494
5511 5512 5512 5513 5514 5514 5514 5515 5515 5516 5517 5517 5517 5516 5515 5515 5514 5512 5511 5510 5509 5507 5506 5504 5503 5502 5500 5498 5496 5495 5493 5492 5491 5489 5487 5487 5487 5486 5486 5486 5486 5486 5487
5503 5503 5504 5504 5504 5505 5505 5505 5505 5506 5507 5507 5506 5506 5505 5504 5503 5502 5501 5500 5500 5499 5497 5496 5495 5494 5492 5490 5488 5487 5485 5484 5483 5482 5481 5480 5480 5480 5480 5480 5480 5480 5481